Location: Unspecified
(0.0000°N, 0.0000°E)
Time: 04:31:40
(UTC+00:00)

Tiros 1 despin weight - All Passes

Search period start: 25 September 2017 00:00
Search period end: 05 October 2017 00:00
Orbit: 595 x 644 km, 48.2° (Epoch: 24 September)

Date Brightness Start Highest point End Pass type
(mag) Time Alt. Az. Time Alt. Az. Time Alt. Az.
25 Sep - 00:46:08 10° SSW 00:50:34 42° SE 00:55:00 10° ENE night (unlit)
25 Sep - 02:29:18 10° W 02:32:02 15° NW 02:34:45 10° NNW night (unlit)
25 Sep - 12:54:35 10° NNW 12:58:58 70° NE 13:03:21 10° SE daylight
26 Sep - 01:02:46 10° SW 01:07:27 70° NW 01:12:06 10° NNE night (unlit)
26 Sep - 11:32:06 10° NNE 11:34:25 14° NE 11:36:46 10° E daylight
26 Sep - 13:11:43 10° WNW 13:15:50 39° SW 13:19:59 10° SSE daylight
26 Sep - 23:39:04 10° S 23:42:54 25° SE 23:46:43 10° ENE night (unlit)
27 Sep - 01:20:27 10° WSW 01:24:20 25° NW 01:28:12 10° N night (unlit)
27 Sep - 11:47:15 10° NNW 11:51:21 38° NE 11:55:27 10° ESE daylight
27 Sep - 13:30:18 10° W 13:32:46 15° SW 13:35:14 10° SSW daylight
27 Sep - 23:55:08 10° SSW 23:59:47 67° SE 00:04:27 10° NE night (unlit)
28 Sep - 12:03:50 10° NW 12:08:13 73° SW 12:12:37 10° SSE daylight
28 Sep - 22:32:36 10° SSE 22:35:12 15° SE 22:37:48 10° E night (unlit)
29 Sep - 00:12:12 10° WSW 00:16:40 43° NW 00:21:07 10° NNE night (unlit)
29 Sep - 10:40:18 10° N 10:43:43 22° NE 10:47:08 10° E daylight
29 Sep - 12:21:28 10° WNW 12:25:06 25° SW 12:28:45 10° S daylight
29 Sep - 22:47:48 10° SSW 22:52:08 37° SE 22:56:28 10° ENE night (unlit)
30 Sep - 00:30:33 10° W 00:33:35 17° NW 00:36:36 10° N night (unlit)
30 Sep - 10:56:14 10° NNW 11:00:37 61° NE 11:04:57 10° SE daylight
30 Sep - 23:04:20 10° SW 23:08:59 78° NW 23:13:41 10° NE night (unlit)
01 Oct - 09:34:04 10° NNE 09:36:03 13° NE 09:38:01 10° ENE daylight
01 Oct - 11:13:15 10° WNW 11:17:29 44° SW 11:21:41 10° SSE daylight
01 Oct - 21:40:50 10° S 21:44:27 22° SE 21:48:04 10° ENE night (unlit)
01 Oct - 23:21:52 10° WSW 23:25:53 28° NW 23:29:54 10° N night (unlit)
02 Oct - 09:48:57 10° NNW 09:52:59 34° NE 09:56:59 10° ESE daylight
02 Oct - 11:31:35 10° W 11:34:22 16° SW 11:37:10 10° S daylight
02 Oct - 21:56:45 10° SSW 22:01:20 59° SE 22:05:57 10° NE night (unlit)
02 Oct - 23:41:39 10° WNW 23:42:50 11° NW 23:44:02 10° NW night (unlit)
03 Oct - 10:05:24 10° NW 10:09:51 82° SW 10:14:16 10° SE daylight
03 Oct - 20:34:36 10° SSE 20:36:45 13° SE 20:38:53 10° ESE night (unlit)
03 Oct - 22:13:43 10° SW 22:18:12 49° NW 22:22:43 10° NNE night (unlit)
04 Oct - 08:42:03 10° N 08:45:19 20° NE 08:48:34 10° E daylight
04 Oct - 10:22:54 10° WNW 10:26:43 28° SW 10:30:31 10° S daylight
04 Oct - 20:49:29 10° SSW 20:53:40 33° SE 20:57:53 10° ENE night (unlit)
04 Oct - 22:31:51 10° W 22:35:07 19° NW 22:38:23 10° N night (unlit)
